Погода в Верхнем Парене

Россия / Магаданская область     62°39′12″N   162°22′54″E
В апреле 2022 года жителям России запретили посещать сайт meteo.paraplan.net по решению Генеральной прокуратуры. Аудитория сайта уменьшилась в 10 раз. Владельцы сайта не видят смысла в поддержке погодного сервера в таких условиях. Сайт будет закрыт в октябре.
темп.,
°C
ветер,
м/с
пор.,
м/с
влажн.,
%
обл.,
%
осадки,
мм/ч
давл.,
гПа
погр.,
м
6 октября, чт
чт623:000юз27100100 11.5 983416
02:000зюз71398100 2.4 981792
05:00−3зюз5139489 2.4 981538
08:00−4юз6158419 0.0 983527
11:00−3юз816816 0.0 984993
14:00−3зюз7148283 0.0 984720
17:00−5зюз81490100 0.0 986429
20:00−7юз349599 0.3 98973
7 октября, пт
пт723:00−13зсз119693 0.3 9929
02:00−16сз119769 0.0 9949
05:00−17сз229791 0.0 99711
08:00−13зсз2392100 0.0 99944
11:00−9з2587100 0.0 1001165
14:00−6зсз3989100 0.0 1003416
17:00−5зсз4986100 0.0 1005233
20:00−8сз2291100 0.0 100928
8 октября, сб
сб823:00−8сз3289100 0.0 101131
02:00−9сз3288100 0.0 101227
05:00−11ссз3387100 0.0 101427
08:00−11ссз2288100 0.0 101519
11:00−9сз1188100 0.0 101630
14:00−9з119169 0.0 101611
17:00−13с119079 0.0 10179
20:00−16ссв229233 0.0 101810
9 октября, вс
вс923:00−15ссв229395 0.0 101811
02:00−12с119699 0.1 101717
05:00−12ссв219698 0.2 101717
08:00−11ссв229699 0.1 101720
11:00−7с119496 0.1 101669
14:00−7ссз009677 0.0 101616
17:00−10ссв229857 0.0 101510
20:00−12ссв229721 0.0 101511
10 октября, пн
пн1023:00−13с329617 0.0 101514
02:00−13с329571 0.0 101415
05:00−9с229295 0.0 101353
08:00−8ссз229289 0.0 101370
11:00−8ссз229160 0.0 101365
14:00−9ссз229152 0.0 101328
17:00−14с32915 0.0 101414
20:00−16с32895 0.0 101615